sat.trackr.live / text

‹ back to catalog

STARLINK-33836

NORAD 63642 · 2025-083J

PAYLOAD ACTIVE UNKNOWN

§ Identity

Operator
Country
US
Launch date
2025-04-25
Launch site
AFETR
Launch vehicle
Mass (kg)
RCS (m²)

Purposes: comms

External: N2YO · Heavens-Above · Gunter

§ Orbital elements

Epoch: 2026-09-20T22:22:35.497056Z

Period
94.27 min
Inclination
43.0083°
Eccentricity
0.0003561
Mean motion
15.27589674 rev/d
Perigee alt
480.6 km
Apogee alt
485.5 km
Semi-major
6,861.2 km
B*
5.2897e-4
RAAN
342.8475°
Arg perigee
260.5390°
Mean anomaly
99.5059°
Rev number
7,992

§ Raw data

STARLINK-338361 63642U 25083J   26263.93235529  .00014328  00000+0  52897-3 0  99972 63642  43.0083 342.8475 0003561 260.5390  99.5059 15.27589674 79922

JSON: /api/v1/satellites/63642 · /tle

For live sub-satellite position, see the globe view (requires WebGL).

§ Visibility from observer

Set your observer location to see the next 7 days of passes ≥ 10°. The values pass through the URL so the page stays shareable.

No JS? Fill the form by hand. The geolocation button needs JavaScript.